STARLINK-34857, 65102

Orbit data source: Space-Track

STARLINK-34857, 65102 is a payload satellite owned by SpaceX/Seattle (US) in LEO that was launched on Mon, 04 Aug 2025 UTC via an FALCON 9 launch vehicle from the Air Force Eastern Test Range (AFETR). Payload-class satellites include a variety of spacecraft equipped with specific instruments for various scientific and technological missions. These include communications satellites like Starlink; space stations such as the ISS; scientific satellites like the Hubble; Earth observation satellites from companies like Planet Labs, Umbra, and HawkEye 360; GPS; miniature CubeSats for education and research; and military/defense satellites.

Loading next visibility...
Identifier
65102, 2025-167AA
Orbit
LEO
Country
Flag of USUS
Related business
Manufacturer
SpaceX/Seattle
Mission
Operational spacecraft
Bus & Motor
STARLINK V2MO, Unknown motor
Mass
575 kg wet, ~530 kg dry
Launch date (UTC)
2025-08-04 (1 month ago)
Launch vehicle
FALCON 9
Launch site
Air Force Eastern Test Range (AFETR)
Object type
Payload
Rocket body
Debris
Shape & HBR
Unknown
Radar Cross Section
Large (>1 m²)

Expand to show TLE details & history
Last TLE update: 9 hours ago

TLE from 9 hours ago
0 STARLINK-34857
1 65102U 25167AA  25243.23794683  .00353327  00000-0  23210-2 0  9996
2 65102  53.1584 194.6670 0001429  74.4595 285.6583 15.74149199  4275
Epoch: 2025-08-31T05:42Z
TLE epoch observation values (Epoch: 2025-08-31T05:42:38.606Z)
Latitude
0.00004°
Longitude
129.34541°
Altitude
347.711 km
Speed
7.702 km/s
True Right ascension
12h 58m 40s
True Declination
0° 00' 00"
Sunlit
Object was in daylight at epoch
Visualization orbit readout
Latitude
Unknown
Longitude
Unknown
Altitude
Unknown
Speed
Unknown
Apparent Right ascension
Unknown
Apparent Declination
Unknown
Sunlit
N/A
Visualization observer readout
Local Sidereal Time
06:12:34
Azimuth
Unknown
Elevation
Unknown
Doppler factor
Unknown
Orbital elements
Apogee altitude
348.276 km
Perigee altitude
346.354 km
Semi-major axis
6,725.452 km
Eccentricity
0.00014
Inclination
53.1584°
RAAN
194.667°
Arg. of periapsis
74.4595°
True anomaly
285.64253°
Mean anomaly
285.6583°
Eccentric anomaly
285.65042°
Mean motion
3.93515 °/min
Orbital period
91.48 mins
BSTAR
0.002321
Loading maneuver chart data...
Computing Atmospheric mass density...
Loading historical data...
Loading historical data...
Loading historical data...
Loading historical data...
Loading historical data...
Loading historical data...
Loading historical data...

Documentation

Showing up to 5 results
|